Regional Weather Roundup
Issued by NWS New Orleans/Baton Rouge, LA

Home | Current Version | Previous Version | Text Only | Print | Product List | Glossary On
Versions: 1 2 3 4 5 6 7 8 9 10 11 12 13 14 15 16 17 18 19 20 21 22 23 24 25 26 27 28 29 30 31 32 33 34 35 36 37 38 39 40 41 42 43 44 45 46 47 48 49 50
882
ASUS44 KLIX 210101
RWRLIX
NEW ORLEANS REGIONAL WEATHER ROUNDUP
NATIONAL WEATHER SERVICE NEW ORLEANS LA
800 PM CDT SUN APR 20 2014

NOTE: "FAIR" INDICATES FEW OR NO CLOUDS BELOW 12,000 FEET WITH NO
      SIGNIFICANT WEATHER AND/OR OBSTRUCTIONS TO VISIBILITY.
      SKY/WX - SKY CONDITION AND SIGNIFICANT WEATHER.
      TMP - AIR TEMPERATURE.     DP    - DEWPOINT TEMPERATURE.
      RH  - RELATIVE HUMIDITY.   PRES  - PRESSURE.
      HI  - HEAT INDEX.          WCI   - WIND CHILL INDEX.

*  THESE STATIONS ARE NOT NWS OR FAA STATIONS AND ARE NOT UNDER
   NWS QUALITY CONTROL.

LAZ038-040-048-061>063-065>067-069-210200-
SOUTHEAST LOUISIANA

CITY           SKY/WX    TMP DP  RH WIND       PRES   REMARKS
N.O. AUDUBON   NOT AVBL
N.O. INTL ARPT PTCLDY    72  61  68 S7        30.10R
N.O. LAKEFRONT CLEAR     73  60  63 SE7       30.11R
N.O. DOWNTOWN*   N/A     75  57  53 S7        30.11R
SLIDELL        CLEAR     69  60  73 SE7       30.10R
BATON ROUGE    CLEAR     74  54  49 SE3       30.07S
BOOTHVILLE     CLEAR     62  58  86 E6        30.13R
BELLE CHASSE   CLEAR    N/A N/A N/A SE6       30.10R
BOGALUSA*        N/A     69  57  65 CALM      30.11R
GALLIANO*      CLEAR     68  62  79 SE3       30.11R
NEW ROADS*     NOT AVBL
GONZALES*        N/A     71  56  57 CALM      30.08S
HAMMOND*       NOT AVBL
HOUMA*           N/A     69  61  75 S3        30.11R
PORT FOURCHON* CLEAR     68  61  77 SE6       30.13R

$$

MSZ070-080>082-210200-
SOUTHERN MISSISSIPPI

CITY           SKY/WX    TMP DP  RH WIND       PRES   REMARKS
MCCOMB         CLEAR     71  52  50 CALM      30.09S
GULFPORT       CLEAR     67  58  72 SE7       30.12R
BILOXI         CLEAR     65  59  80 S6        30.13R
PASCAGOULA     CLEAR     63  59  87 CALM      30.13R
STENNIS ARPT*  CLEAR     64  57  77 SE6       30.12R

$$

COASTAL OBSERVATIONS
LAKE AND NEARSHORE STATIONS

STATION/POSITION TIME  TEMP    WIND        PRES    WAVE
                       AIR SEA DIR/SP/G            HT/PER
                 (UTC) (F)     (DEG/KT/KT) (MB)    (FT/S)
PASCAGOULA       0000   66     140/  5/  8 1019.3
WAVELAND YACHT   0000   66 72  150/  8/ 10 1019.0
GRAND ISLE       0000   68 68  160/  4/  6 1020.0
SOUTHWEST PASS   0000   66 60   90/ 10/ 10 1020.0
NEW CANAL        0000   76 69   20/  3/  4 1019.3
SHELL BEACH      0000   68 67  110/ 12/ 13 1019.2

OFFSHORE STATIONS

STATION/POSITION TIME  TEMP    WIND        PRES    WAVE
                       AIR SEA DIR/SP/G            HT/PER
                 (UTC) (F)     (DEG/KT/KT) (MB)    (FT/S)
64 S DAUPHIN ISL 0044   63 71   60/ 16/ 19 1020.4

$$




USA.gov is the U.S. government's official web portal to all federal, state and local government web resources and services.